[[{"header":{"parameterUnit":"m.s-1","parameterCategory":1,"la1":30.2991,"la2":30.254,"lo1":-89.0895,"lo2":-89.0444,"dy":0.0017,"dx":0.0017,"nx":28,"ny":28,"refTime":"2025-12-27T03:00:00:Z","depth":0,"parameterNumber":2,"parameterNumberName":"U-component_of_WINDS"},"data":[0,0,0,0,0,0,0,0,0,0,0,0,0,0,0,0,0,0,0,0,0,0,0,0,0,0,0,0,0,0,0,0,0,0,0,0,0,0,0,0,0,0,0,0,0,0,0,0,0,0,0,0,0,0,0,0,0,0,0.6862,0.6862,0,0.6842,0.6842,0.6842,0.6793,0.6792,0.6791,0.679,0.6772,0.6773,0.6773,0,0,0,0,0,0,0,0,0,0,0,0,0,0.6859,0.6859,0.6862,0.6862,0.6862,0.6842,0.6842,0.6842,0.6793,0.6792,0.679,0.6789,0.6772,0.6773,0.6773,0,0,0,0,0,0,0,0,0,0,0,0,0,0.6852,0.6859,0.6862,0.6835,0.6832,0.6842,0.6842,0.6842,0.6793,0.6792,0.679,0.6789,0.6772,0.6773,0.6773,0.681,0,0,0.6776,0.6776,0,0,0,0,0,0,0,0,0.6852,0.6852,0.6839,0.6837,0.6834,0.6818,0.6834,0.6831,0.6794,0.6808,0.679,0.6788,0.6789,0.6788,0.6788,0.6809,0.6808,0.6776,0.6776,0.6777,0.6777,0,0,0,0,0,0,0,0.6853,0.6853,0.6854,0.6839,0.6836,0.6824,0.6821,0.6834,0.6808,0.6807,0.6803,0.6801,0.6787,0.6788,0.6787,0.6808,0.6776,0.6776,0.6777,0.6777,0.6856,0.6858,0,0,0,0,0,0,0.6857,0.6853,0.6855,0.6854,0.6839,0.6825,0.6822,0.6825,0.6807,0.6803,0.6803,0.6799,0.6787,0.6787,0.6787,0.6827,0.6777,0.6777,0.6778,0.6855,0.6857,0.6859,0,0,0,0,0,0,0.6857,0.6858,0.6856,0.6852,0.6851,0.6827,0.683,0.6825,0.6825,0.6804,0.68,0.6807,0.6786,0.6785,0.6804,0.6826,0.6778,0.6778,0.6853,0.6855,0.6858,0.691,0,0,0,0,0,0,0.6857,0.6858,0.6871,0.6853,0.6852,0.6873,0.6832,0.6826,0.6827,0.6822,0.6808,0.6804,0.6784,0.6803,0.6805,0.6826,0.6779,0.6851,0.6854,0.6857,0.6906,0.6914,0.6921,0,0,0,0,0,0.6857,0.6887,0.6872,0.6873,0.6868,0.6874,0.6874,0.685,0.6829,0.6842,0.6828,0.6804,0.6823,0.6805,0.6807,0.6829,0.6849,0.6853,0.6857,0.6903,0.6912,0.692,0,0,0,0,0,0,0.691,0.6885,0.6867,0.6892,0.6886,0.6866,0.6882,0.6861,0.6861,0.6857,0.6828,0.6825,0.6848,0.684,0.682,0.6863,0.6832,0.6837,0.6867,0.6876,0.6883,0.6885,0.678,0,0,0,0,0,0.6924,0.6931,0.6909,0.6933,0.6931,0.6907,0.6909,0.6891,0.6884,0.6881,0.6869,0.6863,0.6867,0.6871,0.6874,0.6904,0.6901,0.6921,0.6928,0.6934,0.6938,0.6953,0.6962,0.6871,0.6871,0.6871,0,0,0.6954,0.6941,0.6948,0.6943,0.6936,0.6945,0.6905,0.6916,0.6922,0.6883,0.6899,0.689,0.6881,0.6906,0.6916,0.69,0.6962,0.6938,0.6943,0.6944,0.6958,0.6967,0.6974,0.6873,0.6873,0.6872,0,0,0.7013,0.7004,0.7023,0.7016,0.7005,0.6989,0.6994,0.6977,0.6969,0.6985,0.6955,0.6962,0.6971,0.6966,0.6965,0.702,0.6999,0.7022,0.706,0.7075,0.7083,0.7089,0.7109,0.7117,0.7026,0.7027,0.7027,0,0.7052,0.7063,0.7036,0.7048,0.7047,0.7011,0.703,0.7025,0.7016,0.7016,0.6999,0.7008,0.7,0.7022,0.7036,0.7036,0.704,0.7024,0.7084,0.709,0.7095,0.7114,0.7122,0.7029,0.7029,0.7029,0.7029,0,0.7112,0.712,0.7136,0.7127,0.7128,0.7144,0.7119,0.7123,0.7105,0.7091,0.7108,0.7096,0.7096,0.71,0.7083,0.712,0.711,0.7089,0.7058,0.7107,0.7124,0.7131,0.7034,0.7033,0.7032,0.7031,0,0,0.7204,0.7179,0.7186,0.7181,0.7166,0.7172,0.7186,0.7184,0.7189,0.7183,0.7195,0.7202,0.7181,0.718,0.7162,0.7175,0.722,0.7151,0.7151,0.7165,0.726,0.7277,0.7286,0.7205,0.7206,0.7207,0.7261,0,0.726,0.7282,0.7257,0.7284,0.7291,0.7256,0.7268,0.7261,0.7248,0.7252,0.7238,0.7244,0.7216,0.7215,0.7226,0.7212,0.7239,0.7208,0.7216,0.7216,0.722,0.7295,0.7313,0.7365,0.7268,0.7269,0.727,0,0.7328,0.7325,0.7353,0.7335,0.7337,0.7348,0.7345,0.7349,0.734,0.7329,0.7327,0.7304,0.7317,0.7286,0.7304,0.7283,0.7285,0.7279,0.728,0.728,0.7247,0.7298,0.7381,0.7389,0.728,0.7279,0.7278,0,0.7393,0.7396,0.7412,0.7409,0.7389,0.7398,0.739,0.7379,0.7379,0.7377,0.7377,0.7376,0.7376,0.7376,0.7354,0.7333,0.7374,0.7341,0.7366,0.7367,0.7377,0.7377,0.7462,0.7378,0.7378,0.7377,0.7377,0,0.7458,0.7476,0.7441,0.7452,0.7471,0.7443,0.7463,0.7451,0.7442,0.7449,0.7419,0.7428,0.7398,0.7403,0.7386,0.7403,0.7403,0.7396,0.7391,0.7399,0.74,0.74,0.7396,0.7379,0.7379,0.7379,0.7378,0,0.7534,0.7511,0.7527,0.7506,0.7501,0.7517,0.7499,0.7508,0.7492,0.7503,0.7504,0.748,0.7484,0.7462,0.7463,0.7451,0.7477,0.7466,0.748,0.7477,0.7504,0.7502,0.7592,0.7603,0.7511,0.7512,0.7513,0,0.7577,0.7591,0.7571,0.7573,0.7566,0.7571,0.7571,0.7544,0.7545,0.7535,0.7545,0.7547,0.7547,0.7555,0.7539,0.7539,0.7528,0.756,0.7528,0.7535,0.7529,0.7529,0.753,0.7567,0.7568,0.7569,0.757,0,0.7657,0.7644,0.7645,0.7642,0.7643,0.7639,0.7634,0.7638,0.7608,0.7611,0.7614,0.7614,0.7614,0.7617,0.7614,0.7606,0.7583,0.7579,0.7585,0.7594,0.7601,0.7598,0.7499,0.7578,0.7577,0.7576,0.7576,0.7576,0.7718,0.7727,0.7715,0.7717,0.7709,0.7705,0.7712,0.7697,0.7699,0.7696,0.768,0.7687,0.7676,0.7669,0.7664,0.7669,0.7654,0.7663,0.7665,0.7668,0.7672,0.76,0.7668,0.7668,0.7668,0.7668,0.7668,0,0.7795,0.7785,0.7787,0.778,0.7781,0.7758,0.7751,0.7754,0.776,0.7752,0.7752,0.7756,0.7758,0.7741,0.774,0.7748,0.7737,0.7749,0.7748,0.7747,0.7686,0.7681,0.7757,0.7757,0.7757,0.7757,0.7757,0.7757,0.7836,0.7851,0.7837,0.7849,0.7839,0.7844,0.7842,0.7838,0.7831,0.7836,0.7837,0.7826,0.7814,0.7813,0.7813,0.7808,0.781,0.7825,0.7817,0.776,0.7751,0.7743,0.7738,0.7826,0.7826,0.7877,0.7878,0.7878]},{"header":{"parameterUnit":"m.s-1","parameterCategory":1,"la1":30.2991,"la2":30.254,"lo1":-89.0895,"lo2":-89.0444,"dy":0.0017,"dx":0.0017,"nx":28,"ny":28,"refTime":"2025-12-27T03:00:00:Z","depth":0,"parameterNumber":3,"parameterNumberName":"V-component_of_WINDS"},"data":[0,0,0,0,0,0,0,0,0,0,0,0,0,0,0,0,0,0,0,0,0,0,0,0,0,0,0,0,0,0,0,0,0,0,0,0,0,0,0,0,0,0,0,0,0,0,0,0,0,0,0,0,0,0,0,0,0,0,2.2354,2.2354,0,2.2383,2.2384,2.2384,2.2378,2.2378,2.2377,2.2377,2.2405,2.2406,2.2407,0,0,0,0,0,0,0,0,0,0,0,0,0,2.2292,2.2293,2.2354,2.2354,2.2355,2.2383,2.2384,2.2384,2.2379,2.2378,2.2377,2.2377,2.2405,2.2406,2.2408,0,0,0,0,0,0,0,0,0,0,0,0,0,2.232,2.2294,2.2354,2.2356,2.2356,2.2383,2.2384,2.2384,2.2379,2.2378,2.2377,2.2376,2.2404,2.2406,2.2408,2.2435,0,0,2.2413,2.2414,0,0,0,0,0,0,0,0,2.2319,2.2322,2.2355,2.2355,2.2356,2.2377,2.2372,2.2401,2.2379,2.237,2.2377,2.2376,2.2396,2.2399,2.2406,2.2436,2.2437,2.2414,2.2415,2.2416,2.2416,0,0,0,0,0,0,0,2.2317,2.2321,2.2366,2.2355,2.2356,2.2354,2.2358,2.2378,2.2387,2.2371,2.237,2.2374,2.2396,2.2404,2.2406,2.2438,2.2414,2.2415,2.2416,2.2417,2.2493,2.2494,0,0,0,0,0,0,2.2314,2.2319,2.2365,2.2366,2.2335,2.2356,2.236,2.2371,2.2387,2.2389,2.2375,2.2374,2.2401,2.2404,2.2407,2.2441,2.2416,2.2417,2.2418,2.2493,2.2494,2.2495,0,0,0,0,0,0,2.2313,2.2318,2.2363,2.2343,2.2349,2.2358,2.2371,2.2372,2.2379,2.239,2.2391,2.2381,2.2401,2.2405,2.2429,2.2442,2.2418,2.242,2.2491,2.2493,2.2494,2.2508,0,0,0,0,0,0,2.2311,2.2318,2.2329,2.2343,2.235,2.2385,2.2371,2.2373,2.2383,2.2382,2.2396,2.2398,2.24,2.2426,2.243,2.2444,2.2421,2.249,2.2492,2.2494,2.2507,2.251,2.2513,0,0,0,0,0,2.2309,2.2331,2.2329,2.2335,2.2363,2.2385,2.2389,2.2392,2.2384,2.2395,2.2402,2.2397,2.244,2.2428,2.2433,2.2448,2.2489,2.2492,2.2494,2.2505,2.2509,2.2513,0,0,0,0,0,0,2.2316,2.2332,2.2331,2.2358,2.237,2.2384,2.2398,2.2396,2.2411,2.2409,2.2412,2.2415,2.244,2.2446,2.2433,2.2476,2.2463,2.2467,2.2471,2.2475,2.2478,2.2476,2.2423,0,0,0,0,0,2.2321,2.2338,2.2351,2.2374,2.238,2.2388,2.2398,2.2399,2.2412,2.2417,2.2426,2.2438,2.2454,2.2465,2.248,2.2508,2.2511,2.252,2.2523,2.2526,2.2529,2.2545,2.255,2.2501,2.2501,2.2501,0,0,2.2331,2.2342,2.2352,2.2375,2.2385,2.2403,2.2392,2.2411,2.2424,2.242,2.2443,2.245,2.2464,2.249,2.2502,2.2496,2.2543,2.2528,2.253,2.2532,2.2548,2.2552,2.2556,2.2503,2.2503,2.2502,0,0,2.2358,2.2368,2.2388,2.2399,2.2414,2.242,2.2425,2.2439,2.2444,2.2468,2.2465,2.2481,2.2508,2.2519,2.2527,2.256,2.2557,2.2565,2.2581,2.2597,2.2601,2.2604,2.2617,2.2622,2.2568,2.2568,2.2568,0,2.2368,2.2395,2.2399,2.2418,2.2429,2.2427,2.2448,2.2458,2.2477,2.2484,2.2478,2.2513,2.2522,2.2552,2.256,2.2567,2.2573,2.2564,2.26,2.2604,2.2607,2.2619,2.2624,2.2569,2.2569,2.2569,2.2568,0,2.2407,2.2426,2.244,2.2461,2.2473,2.2493,2.25,2.2512,2.2513,2.2519,2.2544,2.2555,2.2573,2.258,2.258,2.261,2.2606,2.26,2.2587,2.2612,2.2624,2.2629,2.257,2.257,2.2569,2.2569,0,0,2.2439,2.2462,2.2467,2.2477,2.2495,2.2509,2.2529,2.2548,2.2559,2.2573,2.259,2.2614,2.2609,2.2619,2.2621,2.2635,2.2662,2.2627,2.2628,2.2634,2.2696,2.2701,2.2707,2.266,2.2661,2.2661,2.2696,0,2.2468,2.2505,2.251,2.2542,2.256,2.2559,2.2577,2.2589,2.2596,2.2612,2.2619,2.2636,2.2628,2.2634,2.2648,2.2656,2.2674,2.2653,2.2676,2.2677,2.2674,2.2712,2.2717,2.2749,2.27,2.2701,2.2701,0,2.2507,2.2523,2.2558,2.2575,2.2582,2.2598,2.2617,2.2632,2.2647,2.2651,2.2663,2.2663,2.2684,2.2671,2.2701,2.2687,2.2696,2.2702,2.2703,2.2706,2.2691,2.2717,2.2759,2.2764,2.2708,2.2708,2.2707,0,2.2528,2.2558,2.2583,2.2592,2.2611,2.2623,2.2632,2.2646,2.2657,2.2673,2.2681,2.2698,2.2708,2.2722,2.2728,2.2717,2.2757,2.2744,2.2761,2.2761,2.277,2.277,2.2815,2.2775,2.2775,2.2775,2.2775,0,2.2561,2.2582,2.2593,2.2609,2.2633,2.2638,2.2662,2.267,2.2683,2.27,2.27,2.2716,2.2722,2.2739,2.2743,2.2767,2.2771,2.2775,2.2776,2.2776,2.2775,2.2783,2.2781,2.2776,2.2776,2.2776,2.2776,0,2.2588,2.2596,2.2624,2.2641,2.2646,2.2663,2.2677,2.2692,2.2699,2.2721,2.2726,2.2737,2.2757,2.2764,2.2788,2.2791,2.282,2.2818,2.2815,2.2815,2.2832,2.2831,2.2884,2.2892,2.2847,2.2847,2.2848,0,2.2608,2.2625,2.2644,2.2656,2.2666,2.2685,2.2697,2.2703,2.2716,2.2735,2.2748,2.2768,2.2785,2.2817,2.2827,2.2845,2.2845,2.2863,2.2848,2.2847,2.2846,2.2846,2.2848,2.2865,2.2866,2.2866,2.2867,0,2.2644,2.2648,2.2666,2.2686,2.2701,2.2717,2.2732,2.2741,2.275,2.2764,2.2785,2.2798,2.2824,2.2844,2.2864,2.2873,2.2871,2.2871,2.2876,2.2876,2.2874,2.2877,2.2823,2.287,2.287,2.2869,2.2869,2.2869,2.2669,2.2685,2.2701,2.2722,2.2734,2.2749,2.2764,2.2774,2.2792,2.2814,2.2816,2.2839,2.2855,2.2881,2.2891,2.2909,2.2904,2.2911,2.2913,2.2915,2.2917,2.2871,2.2912,2.2912,2.2912,2.2912,2.2912,0,2.2706,2.2717,2.2736,2.2758,2.2774,2.2772,2.2789,2.2803,2.2824,2.2839,2.2856,2.2881,2.2901,2.2913,2.2933,2.2946,2.2946,2.2951,2.295,2.2952,2.2919,2.2914,2.2951,2.2951,2.2951,2.2951,2.2951,2.2951,2.2727,2.2753,2.2759,2.2792,2.2803,2.2826,2.2836,2.285,2.2862,2.2891,2.2908,2.2916,2.293,2.2952,2.297,2.2973,2.2981,2.2987,2.2989,2.2958,2.2955,2.2951,2.2945,2.2988,2.2988,2.3021,2.3021,2.3022]}]]